Weather History for Cape Girardeau, MO

Change the Weather History Date:

Thursday, July 18, 2013

  Actual Average Record
Temperature  
Mean Temperature 84 °F 79 °F  
Max Temperature 96 °F 90 °F 99 °F (1986)
Min Temperature 72 °F 68 °F 56 °F (2009)
Degree Days  
Heating Degree Days 0 0  
Month to date heating degree days 0 0  
Since 1 June heating degree days 0 4  
Since 1 July heating degree days 0 0  
Cooling Degree Days 19 14  
Month to date cooling degree days 211 249  
Year to date cooling degree days 715 713  
Since 1 June cooling degree days 544 561  
Growing Degree Days 34 (Base 50)    
Moisture  
Dew Point 72 °F    
Average Humidity 75    
Maximum Humidity 100    
Minimum Humidity 49    
Precipitation  
Precipitation 0.00 in 0.11 in 1.03 in (2001)
Month to date precipitation 0.14 1.97  
Year to date precipitation 24.07 26.64  
Sea Level Pressure  
Sea Level Pressure 30.12 in    
Wind  
Wind Speed 3 mph (ESE)    
Max Wind Speed 13 mph    
Max Gust Speed 16 mph    
Visibility 8 miles    
Events      
T = Trace of Precipitation, MM = Missing Value Source: NWS Daily Summary

Daily Weather History Graph

Daily Weather History Graph

Search for Another Location

Airport:

Trip Planner

Search our weather history database for the weather conditions in past years. The results will help you decide how hot, cold, wet, or windy it might be!

Date:

Astronomy

Jul. 18, 2013 Rise Set
Actual Time 5:52 AM CDT 8:16 PM CDT
Civil Twilight 5:22 AM CDT 8:46 PM CDT
Nautical Twilight 4:45 AM CDT 9:23 PM CDT
Astronomical Twilight 4:04 AM CDT 10:03 PM CDT
Moon 4:14 PM CDT (7/18) 1:41 AM CDT (7/18)
Length of Visible Light 15h 24m
Length of Day
14h 24m
Waxing Gibbous, 77% of the Moon is Illuminated
Jul 18
Waxing Gibbous
Jul 22
Full
Jul 29
Last Quarter
Aug 6
New
Aug 14
First Quarter

Hourly Weather History & Observations

Time (CDT) Temp. Heat Index Dew Point Humidity Pressure Visibility Wind Dir Wind Speed Gust Speed Precip Events Conditions
12:53 AM 75.0 °F - 72.0 °F 90% 30.20 in 8.0 mi Calm Calm - N/A   Clear
1:53 AM 73.9 °F - 72.0 °F 93% 30.19 in 8.0 mi Calm Calm - N/A   Clear
2:53 AM 75.0 °F - 73.0 °F 94% 30.17 in 6.0 mi Calm Calm - N/A   Clear
3:53 AM 73.9 °F - 72.0 °F 93% 30.16 in 7.0 mi Calm Calm - N/A   Clear
4:53 AM 73.9 °F - 72.0 °F 93% 30.16 in 5.0 mi Calm Calm - N/A   Clear
5:50 AM 73.4 °F - 71.6 °F 94% 30.17 in 2.0 mi Calm Calm - N/A   Clear
5:53 AM 72.0 °F - 71.1 °F 97% 30.16 in 2.5 mi Calm Calm - N/A   Clear
6:01 AM 73.4 °F - 71.6 °F 94% 30.18 in 5.0 mi Calm Calm - N/A   Clear
6:53 AM 75.0 °F - 73.0 °F 94% 30.17 in 5.0 mi Calm Calm - N/A   Clear
7:53 AM 82.9 °F 90.2 °F 75.0 °F 77% 30.18 in 9.0 mi Calm Calm - N/A   Clear
8:53 AM 87.1 °F 97.3 °F 75.9 °F 69% 30.18 in 10.0 mi ENE 3.5 mph - N/A   Clear
9:53 AM 89.1 °F 98.0 °F 73.9 °F 61% 30.17 in 10.0 mi NE 5.8 mph - N/A   Clear
10:53 AM 91.9 °F 100.7 °F 73.0 °F 54% 30.17 in 10.0 mi East 6.9 mph - N/A   Clear
11:53 AM 91.9 °F 98.4 °F 71.1 °F 50% 30.15 in 10.0 mi ESE 5.8 mph - N/A   Clear
12:53 PM 93.9 °F 100.8 °F 71.1 °F 47% 30.12 in 10.0 mi Variable 3.5 mph - N/A   Clear
1:53 PM 95.0 °F 104.5 °F 73.0 °F 49% 30.09 in 10.0 mi NE 6.9 mph - N/A   Clear
2:53 PM 93.0 °F 100.1 °F 71.1 °F 49% 30.06 in 10.0 mi ESE 5.8 mph - N/A   Partly Cloudy
3:53 PM 90.0 °F 96.9 °F 72.0 °F 55% 30.05 in 10.0 mi SE 8.1 mph - N/A   Partly Cloudy
4:53 PM 82.9 °F 87.5 °F 71.1 °F 67% 30.06 in 8.0 mi South 6.9 mph - N/A   Clear
5:53 PM 82.9 °F 88.0 °F 72.0 °F 69% 30.06 in 8.0 mi Calm Calm - N/A   Clear
6:53 PM 82.9 °F 88.0 °F 72.0 °F 69% 30.06 in 9.0 mi Calm Calm - N/A   Clear
7:53 PM 81.0 °F 85.8 °F 73.0 °F 77% 30.05 in 7.0 mi West 3.5 mph - N/A   Clear
8:53 PM 79.0 °F - 73.0 °F 82% 30.05 in 7.0 mi Calm Calm - N/A   Clear
9:53 PM 77.0 °F - 72.0 °F 84% 30.06 in 7.0 mi South 3.5 mph - N/A   Clear
10:53 PM 75.9 °F - 72.0 °F 87% 30.06 in 7.0 mi SE 3.5 mph - N/A   Clear
11:53 PM 75.9 °F - 72.0 °F 87% 30.06 in 5.0 mi South 3.5 mph - N/A   Clear